Regional Weather Roundup
Issued by NWS

Home | Current Version | Previous Version | Text Only | Print | Product List | Glossary On
Versions: 1 2 3 4 5 6 7 8 9 10 11 12 13 14 15 16 17 18 19 20 21 22 23 24 25 26 27 28 29 30 31 32 33 34 35 36 37 38 39 40 41 42 43 44 45 46 47 48 49 50
000
ASUS44 KJAN 251210
RWRMS

MISSISSIPPI HOURLY WEATHER ROUNDUP
NATIONAL WEATHER SERVICE JACKSON MS
700 AM CDT SAT APR 25 2015

NOTE: "FAIR: INDICATES FEW OR NO CLOUDS BELOW 12,000 FEET WITH NO
SIGNIFICANT WEATHER AND/OR OBSTRUCTIONS TO VISIBILITY.

MSZ001>002-007>008-010>013-018>021-025>028-034>036-251300-
NORTHWEST MISSISSIPPI

CITY           SKY/WX    TMP DP  RH WIND       PRES   REMARKS
CLARKSDALE     CLOUDY    63  63 100 S9        29.72S
CLEVELAND      FAIR      64  64 100 S10       29.72S
GREENWOOD      NOT AVBL
GREENVILLE     CLOUDY    63  62  97 S6        29.72R
6HR MIN TEMP:  63; 6HR MAX TEMP:  64; 6HR PCP:  0.10;

OLIVE BRANCH   MOCLDY    59  59 100 S10       29.69S
OXFORD         FAIR      59  57  94 S8        29.74F
TUNICA         CLOUDY    61  59  94 S9        29.71F
$$

MSZ003>006-009-014>017-022>024-029>033-037>039-251300-
NORTHEAST MISSISSIPPI

CITY           SKY/WX    TMP DP  RH WIND       PRES   REMARKS
COLUMBUS AFB   CLOUDY    62  62 100 S5        29.77S
6HR MIN TEMP:  60; 6HR MAX TEMP:  62; 6HR PCP:  1.64;

CORINTH        FAIR      63  59  88 S10       29.70S
GOLDN TRIANGLE MOCLDY    63  59  88 S7        29.76F FOG
STARKVILLE     FOG       61  61 100 CALM      29.76S VSB 3/4
TUPELO         CLOUDY    62  59  90 S10       29.74R
6HR MIN TEMP:  57; 6HR MAX TEMP:  63;

$$

MSZ040-058-251300-
CENTRAL MISSISSIPPI

CITY           SKY/WX    TMP DP  RH WIND       PRES   REMARKS
JACKSON INTL   MOCLDY    66  64  93 S6        29.76F
6HR MIN TEMP:  65; 6HR MAX TEMP:  73; 6HR PCP:  0.29;

JACKSON HAWKNS MOCLDY    65  64  97 S7        29.76F
6HR MIN TEMP:  64; 6HR MAX TEMP:  73; 6HR PCP:  0.40;

MERIDIAN KEY   PTCLDY    65  64  97 S6        29.79F
6HR MIN TEMP:  64; 6HR MAX TEMP:  72; 6HR PCP:  0.45;

MERIDIAN NAS   CLEAR     65  64  97 S6        29.78F
6HR MIN TEMP:  65; 6HR MAX TEMP:  72; 6HR PCP:  0.52;

RAYMOND        FAIR      66  61  82 CALM      29.75F
VICKSBURG      CLOUDY    66  64  93 S6        29.75S
6HR MIN TEMP:  66; 6HR MAX TEMP:  74; 6HR PCP:  0.53;

$$

MSZ059>079-251300-
SOUTH MISSISSIPPI

CITY           SKY/WX    TMP DP  RH WIND       PRES   REMARKS
BROOKHAVEN     CLOUDY    72  72 100 S6        29.79S
HATTIESBURG    CLOUDY    73  71  93 SE5       29.80F FOG
6HR MIN TEMP:  72; 6HR MAX TEMP:  74; 6HR PCP:  0.01;

MCCOMB         CLOUDY    73  72  96 SW10      29.79R FOG
6HR MIN TEMP:  71; 6HR MAX TEMP:  73; 6HR PCP: TRACE;

NATCHEZ        CLOUDY    72  70  94 S3        29.77F
6HR MIN TEMP:  70; 6HR MAX TEMP:  73;

PINE BELT      CLOUDY    72  64  78 SE6       29.79F
6HR MIN TEMP:  72; 6HR MAX TEMP:  72;

$$

MSZ080>082-251300-
COASTAL MISSISSIPPI

CITY           SKY/WX    TMP DP  RH WIND       PRES   REMARKS
BAY ST LOUIS   PTCLDY    73  70  88 MISG      29.83  FOG
BILOXI         MOCLDY    76  76 100 SW5       29.82S
6HR MIN TEMP:  75; 6HR MAX TEMP:  77; 6HR PCP:  0.04;

PASCAGOULA     CLOUDY    76  75  97 S5        29.83S FOG
6HR MIN TEMP:  75; 6HR MAX TEMP:  77; 6HR PCP: TRACE;

GULFPORT       MOCLDY    76  74  93 SW3       29.81F FOG
6HR MIN TEMP:  72; 6HR MAX TEMP:  77; 6HR PCP:  0.03;

$$


USA.gov is the U.S. government's official web portal to all federal, state and local government web resources and services.